contact:dominique.lefevre@mio.osupytheas.fr, maurice.libes@osupytheas.fr, didier.mallarino@osupytheas.fr
Project:EMSO http://www.emso-fr.org/EMSO-France
Depth: 2436.0 m
Title:EMSO Ligure Ouest : Data MII capteur MICROCAT
DateTime_Computer,Latitude,Longitude,Temperature,Conductivity,Pressure,DateTime_Instrument
DateTime_Computer,Latitude,Longitude,degC,S m-1,dbar,DateTime_Instrument
2020-04-14T00:01:46Z,42.805,6.029,13.2982,4.59983,2470.087,2020-4-14T02:02:25Z
2020-04-14T00:04:49Z,42.805,6.029,13.2975,4.59976,2470.087,2020-4-14T02:05:28Z
2020-04-14T00:07:52Z,42.805,6.029,13.2981,4.59978,2470.087,2020-4-14T02:08:32Z
2020-04-14T00:10:55Z,42.805,6.029,13.2979,4.59974,2470.1,2020-4-14T02:11:35Z
2020-04-14T00:13:59Z,42.805,6.029,13.2972,4.59978,2470.063,2020-4-14T02:14:38Z
2020-04-14T00:17:02Z,42.805,6.029,13.2976,4.59974,2470.063,2020-4-14T02:17:41Z
2020-04-14T00:20:05Z,42.805,6.029,13.2973,4.59981,2470.087,2020-4-14T02:20:45Z
2020-04-14T00:23:08Z,42.805,6.029,13.2983,4.59983,2470.077,2020-4-14T02:23:48Z
2020-04-14T00:26:12Z,42.805,6.029,13.2980,4.59976,2470.063,2020-4-14T02:26:51Z
2020-04-14T00:29:15Z,42.805,6.029,13.2979,4.59975,2470.1,2020-4-14T02:29:54Z
2020-04-14T00:32:18Z,42.805,6.029,13.2977,4.59978,2470.087,2020-4-14T02:32:58Z
2020-04-14T00:35:21Z,42.805,6.029,13.2976,4.59979,2470.063,2020-4-14T02:36:01Z
2020-04-14T00:38:25Z,42.805,6.029,13.2981,4.59980,2470.1,2020-4-14T02:39:04Z
2020-04-14T00:41:28Z,42.805,6.029,13.2979,4.59978,2470.077,2020-4-14T02:42:07Z
2020-04-14T00:44:31Z,42.805,6.029,13.2979,4.59983,2470.087,2020-4-14T02:45:11Z
2020-04-14T00:47:34Z,42.805,6.029,13.2976,4.59976,2470.077,2020-4-14T02:48:14Z
2020-04-14T00:50:38Z,42.805,6.029,13.2986,4.59983,2470.087,2020-4-14T02:51:17Z
2020-04-14T00:53:41Z,42.805,6.029,13.2983,4.59983,2470.063,2020-4-14T02:54:20Z
2020-04-14T00:56:44Z,42.805,6.029,13.2976,4.59977,2470.077,2020-4-14T02:57:23Z
2020-04-14T00:59:47Z,42.805,6.029,13.2983,4.59981,2470.077,2020-4-14T03:00:27Z
2020-04-14T01:02:51Z,42.805,6.029,13.2975,4.59979,2470.063,2020-4-14T03:03:30Z
2020-04-14T01:05:54Z,42.805,6.029,13.2978,4.59980,2470.087,2020-4-14T03:06:33Z
2020-04-14T01:08:57Z,42.805,6.029,13.2976,4.59976,2470.077,2020-4-14T03:09:36Z
2020-04-14T01:12:00Z,42.805,6.029,13.2982,4.59981,2470.077,2020-4-14T03:12:40Z
2020-04-14T01:15:03Z,42.805,6.029,13.2976,4.59976,2470.087,2020-4-14T03:15:43Z
2020-04-14T01:18:07Z,42.805,6.029,13.2976,4.59988,2470.077,2020-4-14T03:18:46Z
2020-04-14T01:21:10Z,42.805,6.029,13.2982,4.59983,2470.1,2020-4-14T03:21:49Z
2020-04-14T01:24:13Z,42.805,6.029,13.2985,4.59979,2470.1,2020-4-14T03:24:53Z
2020-04-14T01:27:17Z,42.805,6.029,13.2975,4.59976,2470.063,2020-4-14T03:27:56Z
2020-04-14T01:30:20Z,42.805,6.029,13.2983,4.59984,2470.077,2020-4-14T03:30:59Z
2020-04-14T01:33:23Z,42.805,6.029,13.2996,4.59979,2470.087,2020-4-14T03:34:02Z
2020-04-14T01:36:26Z,42.805,6.029,13.2983,4.59979,2470.077,2020-4-14T03:37:06Z
2020-04-14T01:39:30Z,42.805,6.029,13.2982,4.59985,2470.063,2020-4-14T03:40:09Z
2020-04-14T01:42:33Z,42.805,6.029,13.2988,4.59981,2470.11,2020-4-14T03:43:12Z
2020-04-14T01:45:36Z,42.805,6.029,13.2983,4.59991,2470.063,2020-4-14T03:46:15Z
2020-04-14T01:48:39Z,42.805,6.029,13.2982,4.59983,2470.053,2020-4-14T03:49:19Z
2020-04-14T01:51:42Z,42.805,6.029,13.2981,4.59979,2470.04,2020-4-14T03:52:22Z
2020-04-14T01:54:46Z,42.805,6.029,13.2978,4.59981,2470.077,2020-4-14T03:55:25Z
2020-04-14T01:57:49Z,42.805,6.029,13.2982,4.59990,2470.063,2020-4-14T03:58:28Z
2020-04-14T02:00:52Z,42.805,6.029,13.2982,4.59981,2470.087,2020-4-14T04:01:32Z
2020-04-14T02:03:55Z,42.805,6.029,13.2986,4.59982,2470.077,2020-4-14T04:04:35Z
2020-04-14T02:06:59Z,42.805,6.029,13.2982,4.59983,2470.04,2020-4-14T04:07:38Z
2020-04-14T02:10:02Z,42.805,6.029,13.2982,4.59981,2470.077,2020-4-14T04:10:41Z
2020-04-14T02:13:05Z,42.805,6.029,13.2975,4.59980,2470.1,2020-4-14T04:13:45Z
2020-04-14T02:16:08Z,42.805,6.029,13.2983,4.59988,2470.063,2020-4-14T04:16:48Z
2020-04-14T02:19:12Z,42.805,6.029,13.2982,4.59987,2470.04,2020-4-14T04:19:51Z
2020-04-14T02:22:15Z,42.805,6.029,13.2983,4.59982,2470.063,2020-4-14T04:22:54Z
2020-04-14T02:25:18Z,42.805,6.029,13.2985,4.59983,2470.063,2020-4-14T04:25:58Z
2020-04-14T02:28:21Z,42.805,6.029,13.2982,4.59984,2470.063,2020-4-14T04:29:01Z
2020-04-14T02:31:24Z,42.805,6.029,13.2980,4.59988,2470.053,2020-4-14T04:32:04Z
2020-04-14T02:34:28Z,42.805,6.029,13.2976,4.59976,2470.087,2020-4-14T04:35:07Z
2020-04-14T02:37:31Z,42.805,6.029,13.2979,4.59983,2470.077,2020-4-14T04:38:10Z
2020-04-14T02:40:34Z,42.805,6.029,13.2984,4.59983,2470.053,2020-4-14T04:41:14Z
2020-04-14T02:43:37Z,42.805,6.029,13.2985,4.59991,2470.063,2020-4-14T04:44:17Z
2020-04-14T02:46:41Z,42.805,6.029,13.2977,4.59976,2470.017,2020-4-14T04:47:20Z
2020-04-14T02:49:44Z,42.805,6.029,13.2979,4.59987,2470.017,2020-4-14T04:50:23Z
2020-04-14T02:52:47Z,42.805,6.029,13.2982,4.59981,2470.053,2020-4-14T04:53:27Z
2020-04-14T02:55:50Z,42.805,6.029,13.2978,4.59986,2470.053,2020-4-14T04:56:30Z
2020-04-14T02:58:54Z,42.805,6.029,13.2983,4.59983,2470.077,2020-4-14T04:59:33Z
2020-04-14T03:01:57Z,42.805,6.029,13.2981,4.59989,2470.04,2020-4-14T05:02:37Z
2020-04-14T03:05:01Z,42.805,6.029,13.2983,4.59984,2470.04,2020-4-14T05:05:40Z
2020-04-14T03:08:04Z,42.805,6.029,13.2975,4.59983,2470.017,2020-4-14T05:08:43Z
2020-04-14T03:11:07Z,42.805,6.029,13.2985,4.59985,2470.04,2020-4-14T05:11:46Z
2020-04-14T03:14:10Z,42.805,6.029,13.2979,4.59986,2470.04,2020-4-14T05:14:50Z
2020-04-14T03:17:14Z,42.805,6.029,13.2985,4.59991,2470.04,2020-4-14T05:17:53Z
2020-04-14T03:20:17Z,42.805,6.029,13.2982,4.59986,2470.017,2020-4-14T05:20:56Z
2020-04-14T03:23:20Z,42.805,6.029,13.2980,4.59976,2470.04,2020-4-14T05:24:00Z
2020-04-14T03:26:23Z,42.805,6.029,13.2984,4.59981,2470.017,2020-4-14T05:27:03Z
2020-04-14T03:29:27Z,42.805,6.029,13.2978,4.59984,2470.053,2020-4-14T05:30:06Z
2020-04-14T03:32:30Z,42.805,6.029,13.2984,4.59984,2470.017,2020-4-14T05:33:09Z
2020-04-14T03:35:33Z,42.805,6.029,13.2986,4.59986,2470.053,2020-4-14T05:36:13Z
2020-04-14T03:38:36Z,42.805,6.029,13.2982,4.59980,2470.017,2020-4-14T05:39:16Z
2020-04-14T03:41:40Z,42.805,6.029,13.2986,4.59991,2470.053,2020-4-14T05:42:19Z
2020-04-14T03:44:43Z,42.805,6.029,13.2983,4.59992,2470.04,2020-4-14T05:45:22Z
2020-04-14T03:47:46Z,42.805,6.029,13.2983,4.59987,2470.04,2020-4-14T05:48:26Z
2020-04-14T03:50:49Z,42.805,6.029,13.2990,4.59983,2470.017,2020-4-14T05:51:29Z
2020-04-14T03:53:53Z,42.805,6.029,13.2981,4.59993,2470.03,2020-4-14T05:54:32Z
2020-04-14T03:56:56Z,42.805,6.029,13.2985,4.59986,2470.03,2020-4-14T05:57:35Z
2020-04-14T03:59:59Z,42.805,6.029,13.2977,4.59984,2470.04,2020-4-14T06:00:39Z
2020-04-14T04:03:03Z,42.805,6.029,13.2978,4.59990,2470.03,2020-4-14T06:03:42Z
2020-04-14T04:06:06Z,42.805,6.029,13.2982,4.59989,2470.03,2020-4-14T06:06:45Z
2020-04-14T04:09:09Z,42.805,6.029,13.2985,4.59991,2470.063,2020-4-14T06:09:48Z
2020-04-14T04:12:12Z,42.805,6.029,13.2982,4.59984,2470.017,2020-4-14T06:12:52Z
2020-04-14T04:15:15Z,42.805,6.029,13.2983,4.59990,2470.053,2020-4-14T06:15:55Z
2020-04-14T04:18:19Z,42.805,6.029,13.2981,4.59993,2470.017,2020-4-14T06:18:58Z
2020-04-14T04:21:22Z,42.805,6.029,13.2979,4.59995,2469.993,2020-4-14T06:22:01Z
2020-04-14T04:24:25Z,42.805,6.029,13.2982,4.59986,2470.007,2020-4-14T06:25:05Z
2020-04-14T04:27:29Z,42.805,6.029,13.2982,4.59991,2469.993,2020-4-14T06:28:08Z
2020-04-14T04:30:32Z,42.805,6.029,13.2981,4.59987,2470.017,2020-4-14T06:31:11Z
2020-04-14T04:33:35Z,42.805,6.029,13.2983,4.59996,2469.984,2020-4-14T06:34:15Z
2020-04-14T04:36:38Z,42.805,6.029,13.2982,4.59991,2470.04,2020-4-14T06:37:18Z
2020-04-14T04:39:42Z,42.805,6.029,13.2982,4.59988,2469.993,2020-4-14T06:40:21Z
2020-04-14T04:42:45Z,42.805,6.029,13.2983,4.59991,2470.017,2020-4-14T06:43:24Z
2020-04-14T04:45:48Z,42.805,6.029,13.2983,4.59982,2470.03,2020-4-14T06:46:28Z
2020-04-14T04:48:51Z,42.805,6.029,13.2983,4.59989,2470.007,2020-4-14T06:49:31Z
2020-04-14T04:51:55Z,42.805,6.029,13.2979,4.59996,2469.97,2020-4-14T06:52:34Z
2020-04-14T04:54:58Z,42.805,6.029,13.2983,4.59991,2469.993,2020-4-14T06:55:37Z
2020-04-14T04:58:01Z,42.805,6.029,13.2979,4.59989,2469.97,2020-4-14T06:58:40Z
2020-04-14T05:01:04Z,42.805,6.029,13.2990,4.59998,2470.007,2020-4-14T07:01:44Z
2020-04-14T05:04:08Z,42.805,6.029,13.2983,4.59986,2470.007,2020-4-14T07:04:47Z
2020-04-14T05:07:11Z,42.805,6.029,13.2984,4.59990,2469.993,2020-4-14T07:07:50Z
2020-04-14T05:10:14Z,42.805,6.029,13.2980,4.59992,2469.993,2020-4-14T07:10:54Z
2020-04-14T05:13:17Z,42.805,6.029,13.2982,4.59992,2469.947,2020-4-14T07:13:57Z
2020-04-14T05:16:21Z,42.805,6.029,13.2982,4.59995,2469.993,2020-4-14T07:17:00Z
2020-04-14T05:19:24Z,42.805,6.029,13.2982,4.59991,2469.984,2020-4-14T07:20:03Z
2020-04-14T05:22:27Z,42.805,6.029,13.2977,4.59985,2470.007,2020-4-14T07:23:07Z
2020-04-14T05:25:30Z,42.805,6.029,13.2982,4.59987,2469.993,2020-4-14T07:26:10Z
2020-04-14T05:28:33Z,42.805,6.029,13.2978,4.59991,2470.017,2020-4-14T07:29:13Z
2020-04-14T05:31:37Z,42.805,6.029,13.2980,4.59998,2469.97,2020-4-14T07:32:16Z
2020-04-14T05:34:40Z,42.805,6.029,13.2981,4.59989,2469.97,2020-4-14T07:35:19Z
2020-04-14T05:37:43Z,42.805,6.029,13.2980,4.59990,2469.993,2020-4-14T07:38:23Z
2020-04-14T05:40:46Z,42.805,6.029,13.2982,4.59987,2469.984,2020-4-14T07:41:26Z
2020-04-14T05:43:50Z,42.805,6.029,13.2982,4.59991,2469.984,2020-4-14T07:44:29Z
2020-04-14T05:46:53Z,42.805,6.029,13.2980,4.59995,2469.993,2020-4-14T07:47:33Z
2020-04-14T05:49:56Z,42.805,6.029,13.2975,4.59985,2469.97,2020-4-14T07:50:36Z
2020-04-14T05:53:00Z,42.805,6.029,13.2979,4.59988,2470.007,2020-4-14T07:53:39Z
2020-04-14T05:56:03Z,42.805,6.029,13.2980,4.60005,2469.947,2020-4-14T07:56:42Z
2020-04-14T05:59:06Z,42.805,6.029,13.2977,4.59986,2469.947,2020-4-14T07:59:46Z
2020-04-14T06:02:09Z,42.805,6.029,13.2983,4.59996,2469.97,2020-4-14T08:02:49Z
2020-04-14T06:05:13Z,42.805,6.029,13.2983,4.59996,2469.97,2020-4-14T08:05:52Z
2020-04-14T06:08:16Z,42.805,6.029,13.2976,4.59991,2469.96,2020-4-14T08:08:55Z
2020-04-14T06:11:19Z,42.805,6.029,13.2981,4.59988,2469.984,2020-4-14T08:11:59Z
2020-04-14T06:14:22Z,42.805,6.029,13.2979,4.59988,2469.984,2020-4-14T08:15:02Z
2020-04-14T06:17:26Z,42.805,6.029,13.2979,4.59987,2469.97,2020-4-14T08:18:05Z
2020-04-14T06:20:29Z,42.805,6.029,13.2979,4.59986,2469.97,2020-4-14T08:21:08Z
2020-04-14T06:23:32Z,42.805,6.029,13.2981,4.59990,2469.97,2020-4-14T08:24:12Z
2020-04-14T06:26:35Z,42.805,6.029,13.2985,4.59990,2469.923,2020-4-14T08:27:15Z
2020-04-14T06:29:39Z,42.805,6.029,13.2987,4.59991,2469.984,2020-4-14T08:30:18Z
2020-04-14T06:32:42Z,42.805,6.029,13.2979,4.59988,2469.937,2020-4-14T08:33:21Z
2020-04-14T06:35:45Z,42.805,6.029,13.2976,4.59996,2469.97,2020-4-14T08:36:25Z
2020-04-14T06:38:48Z,42.805,6.029,13.2983,4.60000,2469.97,2020-4-14T08:39:28Z
2020-04-14T06:41:52Z,42.805,6.029,13.2982,4.59991,2469.947,2020-4-14T08:42:31Z
2020-04-14T06:44:55Z,42.805,6.029,13.2982,4.59988,2469.923,2020-4-14T08:45:34Z
2020-04-14T06:47:58Z,42.805,6.029,13.2982,4.59987,2469.947,2020-4-14T08:48:38Z
2020-04-14T06:51:01Z,42.805,6.029,13.2983,4.59991,2469.96,2020-4-14T08:51:41Z
2020-04-14T06:54:05Z,42.805,6.029,13.2981,4.59984,2469.984,2020-4-14T08:54:44Z
2020-04-14T06:57:08Z,42.805,6.029,13.2979,4.59988,2469.947,2020-4-14T08:57:48Z
2020-04-14T07:00:11Z,42.805,6.029,13.2986,4.59989,2469.947,2020-4-14T09:00:51Z
2020-04-14T07:03:15Z,42.805,6.029,13.2984,4.59989,2469.97,2020-4-14T09:03:54Z
2020-04-14T07:06:18Z,42.805,6.029,13.2990,4.60000,2469.984,2020-4-14T09:06:57Z
2020-04-14T07:09:21Z,42.805,6.029,13.2982,4.59988,2469.96,2020-4-14T09:10:01Z
2020-04-14T07:12:24Z,42.805,6.029,13.2981,4.59996,2469.984,2020-4-14T09:13:04Z
2020-04-14T07:15:28Z,42.805,6.029,13.2980,4.59986,2469.96,2020-4-14T09:16:07Z
2020-04-14T07:18:31Z,42.805,6.029,13.2981,4.59987,2469.937,2020-4-14T09:19:10Z
2020-04-14T07:21:34Z,42.805,6.029,13.2982,4.59998,2469.984,2020-4-14T09:22:13Z
2020-04-14T07:24:37Z,42.805,6.029,13.2979,4.59987,2469.923,2020-4-14T09:25:17Z
2020-04-14T07:27:41Z,42.805,6.029,13.2982,4.59990,2469.923,2020-4-14T09:28:20Z
2020-04-14T07:30:44Z,42.805,6.029,13.2982,4.59994,2469.984,2020-4-14T09:31:24Z
2020-04-14T07:33:47Z,42.805,6.029,13.2983,4.59991,2469.947,2020-4-14T09:34:27Z
2020-04-14T07:36:50Z,42.805,6.029,13.2979,4.59986,2469.96,2020-4-14T09:37:30Z
2020-04-14T07:39:54Z,42.805,6.029,13.2980,4.59993,2469.96,2020-4-14T09:40:33Z
2020-04-14T07:42:57Z,42.805,6.029,13.2976,4.59987,2469.97,2020-4-14T09:43:36Z
2020-04-14T07:46:00Z,42.805,6.029,13.2979,4.59983,2469.923,2020-4-14T09:46:40Z
2020-04-14T07:49:03Z,42.805,6.029,13.2982,4.59988,2469.923,2020-4-14T09:49:43Z
2020-04-14T07:52:07Z,42.805,6.029,13.2974,4.59983,2469.96,2020-4-14T09:52:46Z
2020-04-14T07:55:10Z,42.805,6.029,13.2980,4.59986,2469.947,2020-4-14T09:55:50Z
2020-04-14T07:58:13Z,42.805,6.029,13.2983,4.59981,2469.947,2020-4-14T09:58:53Z
2020-04-14T08:01:17Z,42.805,6.029,13.2979,4.59990,2469.947,2020-4-14T10:01:56Z
2020-04-14T08:04:20Z,42.805,6.029,13.2982,4.59991,2469.947,2020-4-14T10:04:59Z
2020-04-14T08:07:23Z,42.805,6.029,13.2985,4.59989,2469.947,2020-4-14T10:08:03Z
2020-04-14T08:10:26Z,42.805,6.029,13.2980,4.59988,2469.933,2020-4-14T10:11:06Z
2020-04-14T08:13:30Z,42.805,6.029,13.2981,4.59983,2469.923,2020-4-14T10:14:09Z
2020-04-14T08:16:33Z,42.805,6.029,13.2980,4.59983,2469.96,2020-4-14T10:17:12Z
2020-04-14T08:19:36Z,42.805,6.029,13.2974,4.59986,2469.97,2020-4-14T10:20:16Z
2020-04-14T08:22:39Z,42.805,6.029,13.2984,4.59989,2469.984,2020-4-14T10:23:19Z
2020-04-14T08:25:43Z,42.805,6.029,13.2986,4.59995,2469.984,2020-4-14T10:26:22Z
2020-04-14T08:28:46Z,42.805,6.029,13.2982,4.59988,2469.984,2020-4-14T10:29:25Z
2020-04-14T08:31:49Z,42.805,6.029,13.2977,4.59993,2469.947,2020-4-14T10:32:29Z
2020-04-14T08:34:52Z,42.805,6.029,13.2976,4.59990,2469.923,2020-4-14T10:35:32Z
2020-04-14T08:37:56Z,42.805,6.029,13.2981,4.59987,2469.923,2020-4-14T10:38:35Z
2020-04-14T08:40:59Z,42.805,6.029,13.2982,4.59996,2469.97,2020-4-14T10:41:38Z
2020-04-14T08:44:02Z,42.805,6.029,13.2976,4.59983,2469.96,2020-4-14T10:44:42Z
2020-04-14T08:47:05Z,42.805,6.029,13.2975,4.59987,2469.947,2020-4-14T10:47:45Z
2020-04-14T08:50:09Z,42.805,6.029,13.2980,4.59985,2469.97,2020-4-14T10:50:48Z
2020-04-14T08:53:12Z,42.805,6.029,13.2979,4.59987,2469.97,2020-4-14T10:53:51Z
2020-04-14T08:56:15Z,42.805,6.029,13.2980,4.59991,2469.96,2020-4-14T10:56:54Z
2020-04-14T08:59:18Z,42.805,6.029,13.2976,4.59991,2469.947,2020-4-14T10:59:58Z
2020-04-14T09:02:22Z,42.805,6.029,13.2985,4.59991,2470.03,2020-4-14T11:03:01Z
2020-04-14T09:05:25Z,42.805,6.029,13.2977,4.59987,2469.96,2020-4-14T11:06:04Z
2020-04-14T09:08:28Z,42.805,6.029,13.2980,4.59979,2469.97,2020-4-14T11:09:08Z
2020-04-14T09:11:32Z,42.805,6.029,13.2977,4.59984,2469.937,2020-4-14T11:12:11Z
2020-04-14T09:14:35Z,42.805,6.029,13.2983,4.59993,2469.947,2020-4-14T11:15:14Z
2020-04-14T09:17:38Z,42.805,6.029,13.2976,4.59991,2469.947,2020-4-14T11:18:18Z
2020-04-14T09:20:41Z,42.805,6.029,13.2977,4.59988,2469.984,2020-4-14T11:21:21Z
2020-04-14T09:23:45Z,42.805,6.029,13.2982,4.59990,2469.993,2020-4-14T11:24:24Z
2020-04-14T09:26:48Z,42.805,6.029,13.2980,4.59993,2469.947,2020-4-14T11:27:27Z
2020-04-14T09:29:51Z,42.805,6.029,13.2976,4.59988,2469.97,2020-4-14T11:30:31Z
2020-04-14T09:32:54Z,42.805,6.029,13.2978,4.59988,2469.96,2020-4-14T11:33:34Z
2020-04-14T09:35:58Z,42.805,6.029,13.2981,4.59987,2469.97,2020-4-14T11:36:37Z
2020-04-14T09:39:01Z,42.805,6.029,13.2982,4.59987,2469.984,2020-4-14T11:39:40Z
2020-04-14T09:42:04Z,42.805,6.029,13.2981,4.59991,2469.984,2020-4-14T11:42:44Z
2020-04-14T09:45:07Z,42.805,6.029,13.2979,4.59991,2469.993,2020-4-14T11:45:47Z
2020-04-14T09:48:11Z,42.805,6.029,13.2987,4.59993,2469.993,2020-4-14T11:48:50Z
2020-04-14T09:51:14Z,42.805,6.029,13.2979,4.59992,2469.96,2020-4-14T11:51:53Z
2020-04-14T09:54:17Z,42.805,6.029,13.2980,4.59993,2469.97,2020-4-14T11:54:57Z
2020-04-14T09:57:20Z,42.805,6.029,13.2982,4.59987,2469.956,2020-4-14T11:58:00Z
2020-04-14T10:00:24Z,42.805,6.029,13.2979,4.59988,2469.947,2020-4-14T12:01:03Z
2020-04-14T10:03:27Z,42.805,6.029,13.2982,4.59984,2469.993,2020-4-14T12:04:06Z
2020-04-14T10:06:30Z,42.805,6.029,13.2983,4.59993,2469.97,2020-4-14T12:07:09Z
2020-04-14T10:09:33Z,42.805,6.029,13.2976,4.59994,2469.993,2020-4-14T12:10:13Z
2020-04-14T10:12:36Z,42.805,6.029,13.2979,4.59994,2469.993,2020-4-14T12:13:16Z
2020-04-14T10:15:40Z,42.805,6.029,13.2982,4.59979,2470.007,2020-4-14T12:16:19Z
2020-04-14T10:18:43Z,42.805,6.029,13.2983,4.59994,2469.97,2020-4-14T12:19:22Z
2020-04-14T10:21:46Z,42.805,6.029,13.2980,4.59993,2469.984,2020-4-14T12:22:26Z
2020-04-14T10:24:49Z,42.805,6.029,13.2982,4.59995,2469.97,2020-4-14T12:25:29Z
2020-04-14T10:27:53Z,42.805,6.029,13.2979,4.59994,2469.97,2020-4-14T12:28:32Z
2020-04-14T10:30:56Z,42.805,6.029,13.2978,4.59991,2469.984,2020-4-14T12:31:36Z
2020-04-14T10:33:59Z,42.805,6.029,13.2983,4.59996,2470.007,2020-4-14T12:34:39Z
2020-04-14T10:37:03Z,42.805,6.029,13.2984,4.59986,2469.97,2020-4-14T12:37:42Z
2020-04-14T10:40:06Z,42.805,6.029,13.2978,4.59991,2469.97,2020-4-14T12:40:45Z
2020-04-14T10:43:09Z,42.805,6.029,13.2978,4.59984,2470.007,2020-4-14T12:43:49Z
2020-04-14T10:46:12Z,42.805,6.029,13.2981,4.59984,2469.993,2020-4-14T12:46:52Z
2020-04-14T10:49:16Z,42.805,6.029,13.2981,4.59993,2469.993,2020-4-14T12:49:55Z
2020-04-14T10:52:19Z,42.805,6.029,13.2983,4.59990,2469.984,2020-4-14T12:52:58Z
2020-04-14T10:55:22Z,42.805,6.029,13.2986,4.59997,2469.947,2020-4-14T12:56:02Z
2020-04-14T10:58:25Z,42.805,6.029,13.2983,4.59996,2469.97,2020-4-14T12:59:05Z
2020-04-14T11:01:29Z,42.805,6.029,13.2982,4.59990,2469.984,2020-4-14T13:02:08Z
2020-04-14T11:04:32Z,42.805,6.029,13.2982,4.59983,2470.007,2020-4-14T13:05:11Z
2020-04-14T11:07:35Z,42.805,6.029,13.2985,4.59992,2469.97,2020-4-14T13:08:15Z
2020-04-14T11:10:38Z,42.805,6.029,13.2978,4.60001,2469.97,2020-4-14T13:11:18Z
2020-04-14T11:13:42Z,42.805,6.029,13.2981,4.59994,2470.007,2020-4-14T13:14:21Z
2020-04-14T11:16:45Z,42.805,6.029,13.2986,4.59991,2469.97,2020-4-14T13:17:24Z
2020-04-14T11:19:48Z,42.805,6.029,13.2981,4.59993,2469.984,2020-4-14T13:20:28Z
2020-04-14T11:22:51Z,42.805,6.029,13.2981,4.59984,2469.97,2020-4-14T13:23:31Z
2020-04-14T11:25:55Z,42.805,6.029,13.2982,4.59996,2469.947,2020-4-14T13:26:34Z
2020-04-14T11:28:58Z,42.805,6.029,13.2979,4.59991,2469.979,2020-4-14T13:29:37Z
2020-04-14T11:32:01Z,42.805,6.029,13.2983,4.59996,2469.947,2020-4-14T13:32:41Z
2020-04-14T11:35:05Z,42.805,6.029,13.2978,4.59990,2469.993,2020-4-14T13:35:44Z
2020-04-14T11:38:08Z,42.805,6.029,13.2981,4.59991,2469.97,2020-4-14T13:38:47Z
2020-04-14T11:41:11Z,42.805,6.029,13.2982,4.59992,2469.984,2020-4-14T13:41:51Z
2020-04-14T11:44:14Z,42.805,6.029,13.2979,4.59987,2469.97,2020-4-14T13:44:54Z
2020-04-14T11:47:18Z,42.805,6.029,13.2981,4.59984,2469.947,2020-4-14T13:47:57Z
2020-04-14T11:50:21Z,42.805,6.029,13.2982,4.59991,2469.984,2020-4-14T13:51:00Z
2020-04-14T11:53:24Z,42.805,6.029,13.2979,4.59988,2469.96,2020-4-14T13:54:04Z
2020-04-14T11:56:27Z,42.805,6.029,13.2986,4.59994,2469.984,2020-4-14T13:57:07Z
2020-04-14T11:59:31Z,42.805,6.029,13.2980,4.59987,2470.007,2020-4-14T14:00:10Z
2020-04-14T12:02:34Z,42.805,6.029,13.2979,4.59991,2469.984,2020-4-14T14:03:13Z
2020-04-14T12:05:37Z,42.805,6.029,13.2976,4.59989,2469.984,2020-4-14T14:06:17Z
2020-04-14T12:08:40Z,42.805,6.029,13.2981,4.59983,2469.97,2020-4-14T14:09:20Z
2020-04-14T12:11:44Z,42.805,6.029,13.2979,4.59991,2469.984,2020-4-14T14:12:23Z
2020-04-14T12:14:47Z,42.805,6.029,13.2978,4.59986,2470.007,2020-4-14T14:15:26Z
2020-04-14T12:17:50Z,42.805,6.029,13.2983,4.59992,2469.984,2020-4-14T14:18:30Z
2020-04-14T12:20:53Z,42.805,6.029,13.2981,4.59986,2469.97,2020-4-14T14:21:33Z
2020-04-14T12:23:57Z,42.805,6.029,13.2979,4.59987,2469.97,2020-4-14T14:24:36Z
2020-04-14T12:27:00Z,42.805,6.029,13.2984,4.59994,2470.007,2020-4-14T14:27:39Z
2020-04-14T12:30:03Z,42.805,6.029,13.2982,4.59987,2469.96,2020-4-14T14:30:43Z
2020-04-14T12:33:06Z,42.805,6.029,13.2982,4.59991,2469.947,2020-4-14T14:33:46Z
2020-04-14T12:36:10Z,42.805,6.029,13.2980,4.59986,2469.947,2020-4-14T14:36:49Z
2020-04-14T12:39:13Z,42.805,6.029,13.2982,4.59991,2469.984,2020-4-14T14:39:52Z
2020-04-14T12:42:16Z,42.805,6.029,13.2981,4.59987,2469.97,2020-4-14T14:42:55Z
2020-04-14T12:45:19Z,42.805,6.029,13.2986,4.59990,2469.97,2020-4-14T14:45:59Z
2020-04-14T12:48:23Z,42.805,6.029,13.2982,4.59991,2469.947,2020-4-14T14:49:02Z
2020-04-14T12:51:26Z,42.805,6.029,13.2980,4.59985,2469.947,2020-4-14T14:52:05Z
2020-04-14T12:54:29Z,42.805,6.029,13.2980,4.59989,2469.984,2020-4-14T14:55:09Z
2020-04-14T12:57:32Z,42.805,6.029,13.2979,4.59985,2469.9,2020-4-14T14:58:12Z
2020-04-14T13:00:36Z,42.805,6.029,13.2982,4.59984,2469.97,2020-4-14T15:01:15Z
2020-04-14T13:03:39Z,42.805,6.029,13.2979,4.59989,2469.937,2020-4-14T15:04:18Z
2020-04-14T13:06:42Z,42.805,6.029,13.2979,4.59987,2469.923,2020-4-14T15:07:22Z
2020-04-14T13:09:45Z,42.805,6.029,13.2982,4.59987,2469.947,2020-4-14T15:10:25Z
2020-04-14T13:12:49Z,42.805,6.029,13.2983,4.59985,2469.984,2020-4-14T15:13:28Z
2020-04-14T13:15:52Z,42.805,6.029,13.2978,4.59986,2469.96,2020-4-14T15:16:31Z
2020-04-14T13:18:55Z,42.805,6.029,13.2986,4.59986,2469.947,2020-4-14T15:19:35Z
2020-04-14T13:21:58Z,42.805,6.029,13.2979,4.59988,2469.947,2020-4-14T15:22:38Z
2020-04-14T13:25:01Z,42.805,6.029,13.2980,4.59990,2469.923,2020-4-14T15:25:41Z
2020-04-14T13:28:05Z,42.805,6.029,13.2984,4.59995,2469.923,2020-4-14T15:28:44Z
2020-04-14T13:31:08Z,42.805,6.029,13.2982,4.59986,2469.984,2020-4-14T15:31:48Z
2020-04-14T13:34:11Z,42.805,6.029,13.2977,4.59984,2469.923,2020-4-14T15:34:51Z
2020-04-14T13:37:15Z,42.805,6.029,13.2983,4.59983,2469.947,2020-4-14T15:37:54Z
2020-04-14T13:40:18Z,42.805,6.029,13.2979,4.59991,2469.937,2020-4-14T15:40:57Z
2020-04-14T13:43:21Z,42.805,6.029,13.2982,4.59987,2469.947,2020-4-14T15:44:01Z
2020-04-14T13:46:24Z,42.805,6.029,13.2979,4.59984,2469.9,2020-4-14T15:47:04Z
2020-04-14T13:49:28Z,42.805,6.029,13.2977,4.59985,2469.96,2020-4-14T15:50:07Z
2020-04-14T13:52:31Z,42.805,6.029,13.2979,4.59987,2469.9,2020-4-14T15:53:10Z
2020-04-14T13:55:34Z,42.805,6.029,13.2979,4.59987,2469.96,2020-4-14T15:56:14Z
2020-04-14T13:58:37Z,42.805,6.029,13.2980,4.59983,2469.96,2020-4-14T15:59:17Z
2020-04-14T14:01:41Z,42.805,6.029,13.2983,4.59986,2469.937,2020-4-14T16:02:20Z
2020-04-14T14:04:44Z,42.805,6.029,13.2986,4.59986,2469.923,2020-4-14T16:05:23Z
2020-04-14T14:07:47Z,42.805,6.029,13.2981,4.59989,2469.923,2020-4-14T16:08:26Z
2020-04-14T14:10:50Z,42.805,6.029,13.2983,4.59994,2469.923,2020-4-14T16:11:30Z
2020-04-14T14:13:53Z,42.805,6.029,13.2982,4.59987,2469.923,2020-4-14T16:14:33Z
2020-04-14T14:16:57Z,42.805,6.029,13.2982,4.59994,2469.96,2020-4-14T16:17:36Z
2020-04-14T14:20:00Z,42.805,6.029,13.2979,4.59985,2469.947,2020-4-14T16:20:39Z
2020-04-14T14:23:03Z,42.805,6.029,13.2979,4.59983,2469.923,2020-4-14T16:23:43Z
2020-04-14T14:26:06Z,42.805,6.029,13.2982,4.59989,2469.947,2020-4-14T16:26:46Z
2020-04-14T14:29:10Z,42.805,6.029,13.2981,4.59991,2469.923,2020-4-14T16:29:49Z
2020-04-14T14:32:13Z,42.805,6.029,13.2984,4.59986,2469.923,2020-4-14T16:32:52Z
2020-04-14T14:35:16Z,42.805,6.029,13.2976,4.59984,2469.923,2020-4-14T16:35:56Z
2020-04-14T14:38:19Z,42.805,6.029,13.2982,4.59988,2469.9,2020-4-14T16:38:59Z
2020-04-14T14:41:23Z,42.805,6.029,13.2983,4.59986,2469.937,2020-4-14T16:42:02Z
2020-04-14T14:44:26Z,42.805,6.029,13.2982,4.59989,2469.923,2020-4-14T16:45:05Z
2020-04-14T14:47:29Z,42.805,6.029,13.2982,4.59992,2469.876,2020-4-14T16:48:09Z
2020-04-14T14:50:32Z,42.805,6.029,13.2982,4.59999,2469.923,2020-4-14T16:51:12Z
2020-04-14T14:53:36Z,42.805,6.029,13.2979,4.59986,2469.923,2020-4-14T16:54:15Z
2020-04-14T14:56:39Z,42.805,6.029,13.2984,4.59991,2469.923,2020-4-14T16:57:18Z
2020-04-14T14:59:42Z,42.805,6.029,13.2982,4.59987,2469.9,2020-4-14T17:00:22Z
2020-04-14T15:02:45Z,42.805,6.029,13.2988,4.59984,2469.947,2020-4-14T17:03:25Z
2020-04-14T15:05:49Z,42.805,6.029,13.2984,4.59986,2469.9,2020-4-14T17:06:28Z
2020-04-14T15:08:52Z,42.805,6.029,13.2982,4.60006,2469.914,2020-4-14T17:09:31Z
2020-04-14T15:11:55Z,42.805,6.029,13.2983,4.59986,2469.937,2020-4-14T17:12:35Z
2020-04-14T15:14:58Z,42.805,6.029,13.2985,4.59989,2469.937,2020-4-14T17:15:38Z